Tracking 20092 objects as of 14-Dec-2019
HD Live streaming from Space Station
objects crossing your sky now

FENGYUN 1C DEB

Track FENGYUN 1C DEB now!
10-day predictions


NORAD ID: 31768
Int'l Code: 1999-025CFT
Perigee: 735.6 km
Apogee: 813.7 km
Inclination: 99.0 °
Period: 100.2 minutes
Semi major axis: 7145 km
RCS: 0.011 m2 (small)
Launch date: May 10, 1999
Source: People's Republic of China (PRC)
Launch site: Taiyaun Space Center, China (TSC)

Note: This is SATELLITE DEBRIS
aabbcc
Your satellite tracking list
Your tracking list is empty




NASA's NSSDC Master Catalog

Two Line Element Set (TLE):
1 31768U 99025CFT 19347.63919529 +.00000850 +00000-0 +29634-3 0  9998
2 31768 099.0481 234.9009 0054655 040.4981 350.1419 14.37273384651766
Source of the keplerian elements: AFSPC